Погода в Сумарокове

Россия / Костромская область     58°12′24″N   41°47′47″E
темп.,
°C
ветер,
м/с
пор.,
м/с
влажн.,
%
обл.,
%
осадки,
мм/ч
давл.,
гПа
погр.,
м
23 апреля, пт
пт2300:00+5ю310945 0.0 1017184
03:00+4ююв399541 0.0 1017176
06:00+5ююв4129227 0.0 1017285
09:00+10ююв612745 0.0 1017628
12:00+14ю6105998 0.0 10161330
15:00+15ю6957100 1.3 10151519
18:00+13ююв5116312 1.1 1014797
21:00+9ююв5138122 1.1 1015391
24 апреля, сб
сб2400:00+8юв5138674 0.1 1014367
03:00+6юв513879 0.1 1012320
06:00+7юв514815 0.0 1011420
09:00+10юв71374100 0.1 1009895
12:00+14юв8136323 0.7 10071723
15:00+13юв71265100 1.9 10051674
18:00+9ююз4881100 1.3 1005963
21:00+6ссз1392100 2.9 1004339
25 апреля, вс
вс2500:00+6вюв2789100 0.7 1001629
03:00+4зюз2395100 1.7 1000253
06:00+2з5997100 1.4 999340
09:000з61499100 9.5 1000671
12:00+1з81599100 6.6 1002969
15:00+1з71599100 11.1 1004957
18:00+2з61495100 2.1 10051133
21:00+2зюз41190100 2.2 1006705
26 апреля, пн
пн2600:00+1зюз51192100 0.1 1006563
03:00+1зюз51391100 0.1 1007563
06:000юз51292100 0.0 1008605
09:00+2зюз51192100 0.0 1009829
12:00+5зюз5974100 0.1 10091422
15:00+6зюз586883 0.4 10091405
18:00+5зюз377483 0.4 1009496
21:00+1юз22885 0.4 100931
27 апреля, вт
вт2700:00−1юз24895 0.0 100965
03:00−1юз23905 0.0 100844
06:000зюз24875 0.0 1008102
09:00+5зюз23695 0.1 1008530
12:00+7з456192 1.1 10081393
15:00+8з465585 1.9 10071861
18:00+6з366921 0.6 1008463
21:00+2юз2380100 0.6 100937